DW4870 Weather Reports


Display with metric or nautical units.
time (UTC)temp
F
wind
direction
speed
MPH
gust
MPH
rain 1hr
in
rain 24hr
in
rain mn
in
humidity
%
barometer
mb
20260507215539 61 22 1.0 2.0 0.00 0.07 0.07 68 1013.6
20260507214610 60 315 0.0 1.0 0.00 0.07 0.07 68 1013.6
20260507213541 60 315 1.0 1.0 0.00 0.07 0.07 68 1013.7
20260507212520 60 0.0 0.0 0.00 0.07 0.07 67 1013.8
20260507211542 60 0.0 0.0 0.00 0.07 0.07 66 1013.8
20260507210540 61 0.0 0.0 0.00 0.07 0.07 66 1013.7
20260507205601 61 0.0 0.0 0.00 0.07 0.07 67 1013.7
20260507204537 60 0.0 0.0 0.00 0.07 0.07 67 1013.6
20260507203535 60 0.0 0.0 0.00 0.07 0.07 67 1013.6
20260507202529 60 0.0 0.0 0.00 0.07 0.07 65 1013.7
20260507201545 60 0.0 0.0 0.00 0.07 0.07 64 1013.6
20260507200544 61 0.0 0.0 0.00 0.07 0.07 63 1013.6
20260507195544 62 0.0 0.0 0.00 0.07 0.07 62 1013.6
20260507194545 62 0.0 0.0 0.00 0.07 0.07 62 1013.6
20260507193542 63 0.0 0.0 0.00 0.07 0.07 61 1013.5
20260507192539 63 0.0 0.0 0.00 0.07 0.07 60 1013.5
20260507191538 64 0.0 0.0 0.00 0.07 0.07 59 1013.5
20260507190529 64 0.0 0.0 0.00 0.07 0.07 59 1013.4
20260507185518 65 0.0 0.0 0.00 0.07 0.07 59 1013.4
20260507184520 65 0.0 0.0 0.00 0.07 0.07 59 1013.4
20260507183548 65 0.0 0.0 0.00 0.07 0.07 59 1013.5
20260507182534 65 0.0 0.0 0.00 0.07 0.07 58 1013.5
20260507181611 66 0.0 0.0 0.00 0.07 0.07 57 1013.4
20260507180533 66 0.0 0.0 0.00 0.07 0.07 57 1013.4
20260507175526 67 0.0 0.0 0.00 0.07 0.07 56 1013.2
20260507174526 67 0.0 0.0 0.00 0.07 0.07 56 1013.2
20260507173608 68 0.0 0.0 0.00 0.07 0.07 56 1013.0
20260507172537 68 0.0 0.0 0.00 0.07 0.07 56 1013.1
20260507171534 69 0.0 0.0 0.00 0.07 0.07 55 1013.1
20260507170532 69 0.0 0.0 0.00 0.07 0.07 55 1013.0
20260507165533 69 0.0 0.0 0.00 0.07 0.07 55 1012.9
20260507164531 70 0.0 0.0 0.00 0.07 0.07 56 1012.9
20260507163527 70 0.0 0.0 0.00 0.07 0.07 56 1012.9
20260507162540 70 0.0 0.0 0.00 0.07 0.07 56 1012.9
20260507161545 70 0.0 0.0 0.00 0.07 0.07 55 1013.0
20260507160555 70 0.0 0.0 0.00 0.07 0.07 56 1013.1
20260507155533 70 23 1.0 2.0 0.00 0.07 0.07 56 1013.2
20260507154532 70 90 0.0 1.0 0.00 0.07 0.07 56 1013.2
20260507153545 71 158 1.0 1.0 0.00 0.07 0.07 56 1013.3
20260507152539 70 0.0 0.0 0.00 0.07 0.07 56 1013.2
20260507151548 70 113 0.0 1.0 0.00 0.07 0.07 56 1013.2
20260507150539 70 0.0 0.0 0.00 0.07 0.07 56 1013.2
20260507145536 70 0.0 0.0 0.00 0.07 0.07 57 1013.2
20260507144530 70 0.0 0.0 0.00 0.07 0.07 57 1013.5
20260507143519 70 45 1.0 1.0 0.00 0.07 0.07 57 1013.6
20260507142539 70 0.0 0.0 0.00 0.07 0.07 57 1013.7
20260507141530 70 0.0 0.0 0.00 0.07 0.07 57 1013.7
20260507140521 70 0.0 0.0 0.00 0.07 0.07 57 1013.8
20260507135539 70 113 1.0 3.0 0.00 0.07 0.07 57 1014.0
20260507134531 70 135 1.0 3.0 0.00 0.07 0.07 57 1014.1
20260507133548 71 47 2.0 6.0 0.00 0.07 0.07 57 1014.1
20260507132518 71 45 1.0 3.0 0.00 0.07 0.07 57 1014.2
20260507131547 71 23 1.0 3.0 0.00 0.07 0.07 58 1014.3
20260507130605 71 89 1.0 4.0 0.00 0.07 0.07 57 1014.4
20260507125542 71 23 1.0 2.0 0.00 0.07 0.07 56 1014.4
20260507124537 72 58 2.0 3.0 0.00 0.07 0.07 57 1014.4
20260507123528 72 29 3.0 4.0 0.00 0.07 0.07 56 1014.3
20260507122529 72 0.0 0.0 0.00 0.07 0.07 55 1014.3
20260507121522 72 139 4.0 5.0 0.00 0.07 0.07 55 1014.4
20260507120522 72 124 3.0 5.0 0.00 0.07 0.07 56 1014.4
20260507115522 72 134 3.0 5.0 0.00 0.07 0.07 56 1014.5
20260507114546 72 123 2.0 6.0 0.00 0.07 0.07 58 1014.5
20260507113649 71 0.0 0.0 0.00 0.07 0.07 59 1014.6
20260507112538 71 180 1.0 2.0 0.00 0.07 0.07 58 1014.7
20260507111544 71 126 2.0 4.0 0.00 0.07 0.07 59 1014.8
20260507110522 72 144 3.0 5.0 0.00 0.07 0.07 60 1014.8
20260507105546 71 97 1.0 5.0 0.00 0.07 0.07 60 1014.8
20260507104538 71 134 3.0 4.0 0.00 0.07 0.07 61 1014.9
20260507103545 71 131 2.0 3.0 0.00 0.07 0.07 62 1014.9
20260507102523 70 90 1.0 3.0 0.00 0.07 0.07 65 1015.0
20260507101546 70 45 1.0 2.0 0.00 0.07 0.07 65 1015.0
20260507100516 70 127 2.0 3.0 0.00 0.07 0.07 68 1015.0
20260507095544 68 0.0 0.0 0.00 0.07 0.07 69 1015.0
20260507094555 67 90 1.0 2.0 0.00 0.07 0.07 72 1015.1
20260507093532 66 92 3.0 3.0 0.00 0.07 0.07 73 1015.1
20260507092525 66 126 2.0 3.0 0.00 0.07 0.07 75 1015.1
20260507091546 65 113 1.0 2.0 0.00 0.07 0.07 76 1015.2
20260507090544 65 45 1.0 3.0 0.00 0.07 0.07 76 1015.2
20260507085536 65 61 2.0 4.0 0.00 0.07 0.07 76 1015.2
20260507084532 66 113 2.0 5.0 0.00 0.07 0.07 77 1015.2
20260507083534 65 158 1.0 4.0 0.00 0.07 0.07 80 1015.2
20260507082535 64 0.0 0.0 0.00 0.07 0.07 83 1015.2
20260507081655 64 0.0 0.0 0.00 0.07 0.07 83 1015.2
20260507080547 64 0.0 0.0 0.00 0.07 0.07 84 1015.2
20260507075521 64 113 0.0 2.0 0.00 0.07 0.07 85 1015.3
20260507074517 64 0.0 0.0 0.00 0.07 0.07 86 1015.3
20260507073516 63 90 1.0 2.0 0.00 0.07 0.07 87 1015.2
20260507072518 62 0.0 0.0 0.00 0.07 0.07 88 1015.2
20260507071540 60 0.0 0.0 0.00 0.07 0.07 88 1015.3
20260507070558 59 0.0 0.0 0.00 0.07 0.07 88 1015.3
20260507065529 59 0.0 0.0 0.00 0.07 0.07 88 1015.3
20260507064526 59 0.0 0.0 0.00 0.07 0.07 88 1015.2
20260507063520 58 0.0 0.0 0.00 0.07 0.07 88 1015.1
20260507062538 58 0.0 0.0 0.00 0.07 0.07 88 1015.2
20260507061524 58 0.0 0.0 0.00 0.07 0.07 88 1015.2
20260507060517 58 0.0 0.0 0.00 0.07 0.07 88 1015.2
20260507055517 58 0.0 0.0 0.00 0.07 0.07 88 1015.1
20260507054542 57 0.0 0.0 0.00 0.07 0.07 88 1015.0
20260507053532 57 0.0 0.0 0.00 0.10 0.07 88 1015.0
20260507052523 56 0.0 0.0 0.00 0.10 0.07 87 1014.9
20260507051532 56 0.0 0.0 0.00 0.10 0.07 87 1015.0
20260507050531 55 0.0 0.0 0.00 0.10 0.07 87 1014.9
20260507045538 55 0.0 0.0 0.00 0.10 0.07 87 1014.8
20260507044541 55 0.0 0.0 0.00 0.10 0.07 87 1014.7
20260507043551 55 0.0 0.0 0.00 0.10 0.07 87 1014.7
20260507042521 55 0.0 0.0 0.00 0.10 0.07 87 1014.5
20260507041519 55 0.0 0.0 0.00 0.10 0.07 86 1014.4
20260507040518 55 0.0 0.0 0.00 0.10 0.07 86 1014.4
20260507035545 55 0.0 0.0 0.00 0.10 0.07 86 1014.3
20260507034627 55 0.0 0.0 0.00 0.10 0.07 86 1014.2
20260507033606 56 0.0 0.0 0.00 0.10 0.07 86 1014.3
20260507032543 56 0.0 0.0 0.00 0.10 0.07 86 1014.3
20260507031538 56 0.0 0.0 0.00 0.10 0.07 86 1014.3
20260507030532 56 0.0 0.0 0.00 0.10 0.07 86 1014.2
20260507025524 56 0.0 0.0 0.00 0.10 0.07 86 1014.3
20260507024546 56 0.0 0.0 0.00 0.10 0.07 85 1014.3
20260507023557 56 0.0 0.0 0.02 0.10 0.07 85 1014.2
20260507022537 56 0.0 0.0 0.02 0.10 0.07 85 1014.2
20260507021551 56 0.0 0.0 0.02 0.10 0.07 85 1014.2
20260507020532 56 0.0 0.0 0.05 0.10 0.07 85 1014.1
20260507015517 56 0.0 0.0 0.05 0.10 0.07 85 1014.1
20260507014546 56 0.0 0.0 0.05 0.10 0.07 85 1014.1
20260507013558 57 0.0 0.0 0.05 0.07 0.05 85 1014.1
20260507012539 57 0.0 0.0 0.05 0.07 0.05 85 1014.2
20260507011532 57 0.0 0.0 0.05 0.07 0.05 85 1014.2
20260507010609 57 0.0 0.0 0.02 0.05 0.02 84 1014.1
20260507005521 57 0.0 0.0 0.02 0.05 0.02 84 1014.1
20260507004517 57 0.0 0.0 0.02 0.05 0.02 84 1014.1
20260507003542 57 0.0 0.0 0.00 0.02 0.00 84 1014.2
20260507002558 58 0.0 0.0 0.00 0.02 0.00 84 1014.3
20260507001534 58 0.0 0.0 0.00 0.02 0.00 84 1014.3
20260507000528 58 0.0 0.0 0.00 0.02 0.00 83 1014.2
20260506235537 58 0.0 0.0 0.00 0.02 0.00 83 1014.1
20260506234531 59 0.0 0.0 0.00 0.02 0.00 83 1014.0
20260506233519 59 180 1.0 2.0 0.00 0.02 0.00 83 1014.1
20260506232548 59 0.0 0.0 0.00 0.02 0.00 83 1014.0
20260506231546 59 0.0 0.0 0.00 0.02 0.00 83 1014.3
20260506230603 59 0.0 0.0 0.00 0.02 0.00 82 1014.3
20260506225558 60 0.0 0.0 0.00 0.02 0.00 82 1014.3
20260506224539 60 0.0 0.0 0.00 0.02 0.00 82 1014.5
20260506223527 60 0.0 0.0 0.00 0.02 0.00 82 1014.5
20260506222523 60 0.0 0.0 0.00 0.02 0.00 82 1014.5
20260506221516 60 0.0 0.0 0.00 0.02 0.00 82 1014.4
20260506220519 60 0.0 0.0 0.00 0.02 0.00 81 1014.4